Regional Weather Roundup
Issued by NWS New Orleans/Baton Rouge, LA

Home | Current Version | Previous Version | Text Only | Print | Product List | Glossary Off
Versions: 1 2 3 4 5 6 7 8 9 10 11 12 13 14 15 16 17 18 19 20 21 22 23 24 25 26 27 28 29 30 31 32 33 34 35 36 37 38 39 40 41 42 43 44 45 46 47 48 49 50

487
ASUS44 KLIX 180501
RWRLIX
NEW ORLEANS REGIONAL WEATHER ROUNDUP
NATIONAL WEATHER SERVICE NEW ORLEANS LA
1200 AM CDT FRI APR 18 2014

NOTE: "FAIR" INDICATES FEW OR NO CLOUDS BELOW 12,000 FEET WITH NO
      SIGNIFICANT WEATHER AND/OR OBSTRUCTIONS TO VISIBILITY.
      SKY/WX - SKY CONDITION AND SIGNIFICANT WEATHER.
      TMP - AIR TEMPERATURE.     DP    - DEWPOINT TEMPERATURE.
      RH  - RELATIVE HUMIDITY.   PRES  - PRESSURE.
      HI  - HEAT INDEX.          WCI   - WIND CHILL INDEX.

*  THESE STATIONS ARE NOT NWS OR FAA STATIONS AND ARE NOT UNDER
   NWS QUALITY CONTROL.

LAZ038-040-048-061>063-065>067-069-180600-
SOUTHEAST LOUISIANA

CITY           SKY/WX    TMP DP  RH WIND       PRES   REMARKS
N.O. AUDUBON     N/A     65  33  30 MISG        N/A
N.O. INTL ARPT CLOUDY    64  59  83 E13G21    30.12R
N.O. LAKEFRONT CLOUDY    64  59  83 E17       30.13R
N.O. DOWNTOWN* CLOUDY    63  55  77 E7        30.12S
SLIDELL        CLOUDY    62  58  86 NE5       30.13S
BATON ROUGE    CLOUDY    62  57  83 NE7       30.13S
BOOTHVILLE     CLOUDY    63  61  93 NE13G20   30.10R
BELLE CHASSE   CLOUDY    63  58  83 NE16      30.11S
BOGALUSA*        N/A     63  56  76 E6        30.15F
GALLIANO*      NOT AVBL
NEW ROADS*     NOT AVBL
GONZALES*      CLOUDY    64  60  87 CALM      30.12R
HAMMOND*       NOT AVBL
HOUMA*           N/A     64  59  86 E9        30.10S
PORT FOURCHON* CLOUDY    64  63  94 NE13G21   30.10R

$$

MSZ070-080>082-180600-
SOUTHERN MISSISSIPPI

CITY           SKY/WX    TMP DP  RH WIND       PRES   REMARKS
MCCOMB         CLOUDY    60  53  77 E5        30.15F
GULFPORT       CLOUDY    64  58  80 NE9       30.16R
BILOXI         NOT AVBL
PASCAGOULA     LGT RAIN  61  59  93 E13G21    30.13F

$$

COASTAL OBSERVATIONS
LAKE AND NEARSHORE STATIONS

STATION/POSITION TIME  TEMP    WIND        PRES    WAVE
                       AIR SEA DIR/SP/G            HT/PER
                 (UTC) (F)     (DEG/KT/KT) (MB)    (FT/S)
PASCAGOULA       0400   62      80/ 21/ 27 1019.4
WAVELAND YACHT   0400   62 66   70/ 10/ 11 1020.3
GRAND ISLE       0400   64 67   70/ 16/ 22 1018.9
SOUTHWEST PASS   0400   65 58   80/ 33/ 39 1016.9
NEW CANAL        0400   63 63   80/  9/ 18 1020.1
SHELL BEACH      0400   63 61   50/ 17/ 19 1019.7

OFFSHORE STATIONS

STATION/POSITION TIME  TEMP    WIND        PRES    WAVE
                       AIR SEA DIR/SP/G            HT/PER
                 (UTC) (F)     (DEG/KT/KT) (MB)    (FT/S)
64 S DAUPHIN ISL 0404   65 71   30/ 21/ 25 1019.6

$$




USA.gov is the U.S. government's official web portal to all federal, state and local government web resources and services.